Temp
12 13 14 14 13 13 13 12 12 12 12 12 11 10 9 7 6 5 4 4 5 5 4 3 2 1 1 1 1 3 4 6 8 11 12 13 13 13 13 12 13 14 15 15
13 15 15 14 14 13 13 12 12 12 12 12 10 10 8 7 6 5 4 4 4 4 4 3 2 1 0 0 0 1 2 4 6 11 12 12 12 12 12 11 12 12 13 14
14 15 15 15 14 13 13 12 13 13 12 9 9 10 8 7 6 6 5 3 3 3 3 3 2 0 -0 -0 -0 0 1 1 3 9 11 11 11 10 10 9 10 10 11 11
15 15 15 15 15 13 13 13 12 12 12 12 10 13 10 8 7 6 4 3 3 2 2 2 1 0 -0 -1 -1 -0 0 -0 2 4 7 8 8 8 8 8 8 8 8 10
16 15 14 15 15 13 13 12 12 12 11 11 11 11 12 8 8 7 5 3 3 2 2 1 0 -0 -0 -1 -1 -1 0 0 2 2 2 3 4 4 5 6 7 7 8 8
14 13 14 15 14 13 12 12 11 9 10 11 11 11 13 9 10 7 5 3 2 2 1 1 0 -0 -1 -0 -0 -1 -1 -0 1 2 0 1 1 1 2 3 4 4 6 7
12 14 13 14 14 13 11 11 11 12 11 12 10 10 12 9 7 7 5 3 2 1 1 0 -0 -1 -1 -1 -1 -0 -1 -2 -2 -2 -0 -0 -1 -1 -1 -1 -0 1 2 2
11 12 14 13 14 14 12 11 11 12 12 12 10 12 13 8 5 5 4 3 2 1 0 -0 -1 -1 -2 -2 -1 -1 -1 -1 1 0 -1 -1 -0 -0 0 -0 -0 -0 0 0
11 13 13 13 13 13 13 12 11 11 10 9 10 11 7 5 5 4 3 3 2 1 0 -0 -1 -2 -2 -2 -1 -1 -1 -1 -1 -1 -0 -1 1 0 0 0 -0 0 1 1
13 11 12 13 12 12 13 12 12 10 12 11 11 10 11 7 6 5 4 3 2 1 0 -1 -2 -2 -2 -2 -1 -2 -2 -2 -2 -1 -0 -0 -1 -0 0 0 -0 0 1 1
12 10 12 12 12 13 12 11 11 10 10 11 10 11 11 10 8 6 5 4 2 1 0 -1 -2 -3 -2 -2 -2 -2 -2 -2 -2 -2 -2 -2 -2 -2 -2 -2 -2 -1 -1 -1
11 9 9 11 12 11 12 12 11 11 11 9 9 10 8 7 6 7 5 4 2 1 -0 -1 -2 -3 -3 -3 -3 -3 -2 -2 -2 -2 -2 -2 -2 -2 -2 -2 -2 -2 -2 -1
12 9 9 12 12 11 11 11 11 10 9 10 10 11 6 6 6 5 4 3 2 1 -0 -1 -2 -3 -3 -3 -3 -3 -3 -3 -3 -3 -3 -3 -3 -3 -3 -3 -3 -3 -3 -3
12 10 10 11 12 11 11 11 10 11 9 10 11 12 12 10 7 5 4 3 2 1 0 -1 -2 -3 -3 -4 -3 -4 -4 -4 -4 -4 -4 -5 -5 -5 -5 -4 -4 -4 -4 -4
11 10 9 9 9 9 10 10 10 9 11 10 12 10 12 11 9 7 5 2 1 0 0 -0 -1 -3 -4 -4 -4 -4 -4 -4 -4 -4 -3 -4 -3 -3 -2 -2 -3 -3 -4 -4
8 10 9 9 9 8 8 9 9 9 9 9 10 10 10 6 6 4 3 2 1 1 -0 -0 -2 -3 -4 -4 -4 -4 -4 -4 -4 -5 -5 -6 -6 -6 -6 -6 -5 -5 -5 -4
10 9 9 9 8 7 8 10 9 9 7 8 8 9 5 7 5 4 2 2 1 0 0 -1 -2 -3 -4 -4 -4 -4 -4 -5 -5 -5 -6 -6 -6 -6 -7 -7 -7 -8 -7 -7
9 9 9 9 8 8 13 9 9 9 9 7 7 6 5 3 -0 -0 1 0 -0 -1 -1 -3 -4 -4 -4 -4 -5 -5 -5 -5 -6 -6 -6 -6 -6 -7 -7 -7 -7 -7 -7 -8
6 9 8 8 7 9 11 7 7 8 9 8 8 4 1 -0 0 0 -1 -1 -2 -2 -3 -3 -4 -4 -5 -5 -5 -5 -5 -6 -6 -7 -7 -7 -7 -7 -7 -7 -7 -7 -7 -8
5 7 7 7 8 9 11 6 5 6 7 5 5 4 1 0 4 3 -2 -2 -3 -4 -4 -4 -4 -5 -5 -6 -6 -6 -6 -6 -7 -7 -8 -7 -7 -8 -8 -8 -8 -8 -8 -9
6 5 7 7 8 7 8 5 5 9 11 3 3 3 1 1 -0 -3 -3 -4 -4 -4 -5 -5 -5 -5 -6 -6 -6 -6 -7 -7 -8 -8 -8 -8 -8 -9 -9 -9 -9 -9 -9 -10
9 7 6 6 7 7 3 4 8 6 1 1 1 1 0 -2 -3 -3 -3 -4 -4 -5 -6 -6 -6 -6 -6 -7 -7 -7 -8 -8 -8 -8 -9 -9 -9 -9 -10 -10 -10 -10 -10 -10
9 10 9 8 8 6 5 6 1 1 1 -1 -1 -1 -1 -2 -2 -3 -4 -5 -6 -7 -6 -6 -7 -7 -7 -7 -8 -9 -8 -9 -9 -9 -9 -9 -10 -10 -10 -11 -11 -11 -11 -11
7 8 8 7 8 7 3 0 -0 -1 -2 -3 -2 -2 -2 -3 -4 -5 -6 -6 -7 -7 -7 -7 -8 -8 -8 -8 -9 -9 -9 -10 -10 -10 -10 -11 -11 -11 -11 -11 -12 -12 -12 -12
8 7 7 8 9 3 -0 -0 -2 -3 -3 -4 -4 -4 -4 -5 -5 -6 -6 -7 -8 -7 -8 -8 -9 -9 -9 -10 -10 -10 -10 -11 -11 -11 -11 -11 -12 -12 -12 -12 -12 -12 -12 -11
6 9 8 9 1 1 -1 -2 -3 -4 -4 -5 -5 -6 -6 -6 -6 -7 -8 -8 -8 -9 -9 -10 -10 -10 -10 -11 -11 -11 -11 -12 -12 -12 -12 -13 -12 -13 -13 -13 -13 -12 -11 -11
Height
840 847 849 848 849 850 851 855 856 850 844 845 846 849 854 859 861 864 867 863 858 854 851 847 841 833 824 816 809 802 794 789 786 786 788 788 788 791 792 793 794 796 796 800
846 847 843 844 846 848 851 852 852 847 845 846 848 844 852 856 860 863 866 864 861 856 848 846 841 835 827 821 814 806 798 793 789 787 788 788 789 789 791 791 790 793 794 795
848 843 840 842 844 848 849 850 847 847 843 852 852 843 853 857 859 860 862 864 863 859 854 850 847 841 833 825 817 810 804 798 790 785 786 787 788 791 793 794 791 794 788 787
845 842 842 843 844 849 850 846 847 846 845 846 851 837 845 853 856 858 861 861 862 861 858 854 851 846 839 832 825 819 812 804 793 790 789 790 793 797 800 799 798 796 793 793
845 845 844 843 841 846 847 845 846 845 848 852 848 847 829 849 848 850 857 860 862 863 860 856 853 850 845 836 830 823 814 811 802 801 797 798 799 803 802 801 798 801 801 797
846 847 845 842 843 844 845 844 849 855 854 851 844 846 819 841 833 846 856 860 861 861 860 857 854 852 847 840 833 828 822 817 813 810 808 806 809 808 804 803 800 805 802 804
856 846 845 844 845 845 849 852 851 848 848 840 849 849 818 833 839 841 850 858 860 861 860 859 854 851 848 844 837 832 829 828 826 822 819 819 815 813 810 810 809 808 808 810
872 861 848 847 847 849 853 856 861 855 853 846 849 836 814 838 845 848 851 856 858 861 860 859 858 854 851 848 844 841 838 834 830 832 833 828 819 819 814 816 819 817 816 820
873 861 850 849 849 850 852 857 859 859 865 868 845 831 841 847 852 855 854 855 856 859 860 860 859 857 854 852 850 848 845 844 842 841 836 833 827 826 824 825 832 826 825 824
865 873 853 851 851 852 851 856 857 866 854 853 841 840 823 838 842 850 855 854 857 860 861 861 859 857 856 856 855 854 852 849 846 841 835 831 833 830 830 831 831 827 825 826
865 875 859 854 852 851 856 859 862 865 867 857 860 829 815 820 828 834 841 849 854 858 862 863 862 860 857 857 857 855 853 850 848 846 845 843 842 840 839 836 835 833 832 831
869 881 878 857 851 855 852 852 858 858 863 868 867 837 824 827 828 828 835 842 848 852 857 863 864 863 861 859 859 857 855 853 852 852 850 848 846 843 841 839 838 836 834 832
866 877 879 851 853 852 852 853 853 860 862 860 858 823 827 828 827 830 833 836 841 847 851 856 861 864 863 862 862 860 859 857 856 854 851 849 847 845 843 843 841 839 837 833
861 872 869 860 849 853 849 849 851 849 860 847 830 811 805 815 820 826 829 833 840 843 846 851 856 860 863 862 862 862 861 859 858 856 854 852 850 849 848 847 844 840 837 833
862 865 869 859 861 857 847 843 847 851 833 844 804 822 797 804 809 813 818 830 837 842 846 849 854 858 860 861 861 860 859 858 856 854 852 850 849 847 845 843 841 839 837 835
867 859 863 854 848 854 848 836 836 834 831 830 820 815 805 811 811 815 816 822 830 837 842 843 850 855 857 857 857 857 856 855 854 854 853 853 851 849 846 843 840 837 835 832
861 862 858 849 853 854 840 816 822 823 827 824 823 805 816 812 814 817 823 824 827 832 838 841 845 849 853 854 854 854 854 854 854 853 852 851 849 847 846 844 842 840 837 835
858 862 860 852 852 851 804 815 818 819 815 818 811 813 817 821 827 823 821 824 829 834 839 843 845 848 851 852 853 854 854 854 853 852 851 850 848 846 844 841 839 838 836 834
862 859 864 861 864 831 799 816 818 817 805 800 803 812 821 827 827 824 825 826 829 832 838 843 846 848 851 852 853 853 853 852 852 851 850 849 847 845 842 840 839 836 833 831
866 863 863 869 857 836 800 820 824 823 815 811 812 815 821 826 817 815 825 827 833 837 841 844 847 849 851 852 852 851 851 850 850 850 849 846 845 843 841 839 835 832 831 828
865 872 859 854 844 833 812 822 822 815 792 815 816 817 823 823 828 832 832 834 837 841 844 846 847 848 849 849 850 849 849 849 848 847 846 844 843 840 838 835 833 830 827 823
840 851 857 857 847 831 815 823 811 800 813 814 819 818 824 827 830 832 836 836 839 841 845 846 847 848 848 848 848 847 847 846 845 843 842 840 838 836 834 831 828 825 822 819
828 819 823 829 809 801 803 796 806 809 808 815 818 819 821 825 830 834 838 841 843 845 847 848 848 849 849 848 847 846 845 843 841 840 838 835 833 832 829 827 824 821 818 815
824 816 814 818 789 793 804 808 810 812 813 817 819 820 823 828 833 838 841 844 845 847 848 847 848 848 847 846 845 844 842 841 838 836 834 831 829 827 825 823 821 818 815 813
806 813 807 795 787 800 807 810 814 816 818 821 824 825 828 831 835 839 842 845 846 847 847 847 847 847 846 844 843 842 840 837 835 832 830 827 825 823 820 818 816 814 811 809
806 796 798 783 810 809 814 816 819 821 824 827 828 831 834 836 839 843 845 847 848 848 849 848 847 845 843 841 839 838 836 834 831 829 827 825 822 819 817 814 810 808 806 803
Wind_Speed
5 6 2 2 2 3 1 2 4 4 1 2 4 4 6 3 4 6 7 11 11 11 14 18 22 24 26 30 29 28 24 21 15 5 4 4 6 11 14 19 26 30 29 28
5 2 1 1 2 2 3 2 4 4 2 3 2 8 5 4 2 2 4 8 12 13 15 23 26 27 28 27 31 33 28 23 18 7 4 3 5 5 4 7 12 16 31 31
4 2 0 0 2 5 3 3 3 4 2 1 2 5 3 2 3 3 4 4 7 10 13 16 23 25 27 30 34 32 32 30 26 18 8 18 20 19 21 21 23 21 13 13
0 2 1 1 2 3 4 2 3 5 3 3 1 4 3 4 4 1 2 5 7 9 9 14 18 23 25 27 31 31 36 36 37 31 29 25 22 20 17 20 27 30 30 23
2 3 3 2 1 4 6 2 3 2 2 2 1 1 2 4 7 7 3 2 4 6 7 10 14 17 20 23 26 33 40 41 43 38 35 28 28 22 23 26 31 31 31 33
1 3 2 2 2 2 4 2 3 3 1 1 3 3 4 5 5 4 3 3 2 4 7 11 12 14 19 25 28 31 38 41 41 38 37 38 31 27 28 29 29 26 26 24
6 2 3 1 3 1 7 5 3 4 3 4 3 2 7 4 3 4 8 6 3 4 6 8 13 16 19 23 26 28 30 29 32 38 36 32 31 30 32 27 28 26 26 24
5 6 3 4 2 2 3 2 2 4 3 5 1 5 4 2 5 6 7 6 5 4 5 7 11 14 17 20 25 24 25 29 32 31 28 28 32 32 34 31 26 26 25 21
5 5 3 2 2 2 2 2 1 2 1 1 3 6 1 2 2 4 7 6 4 4 4 5 8 12 15 19 21 22 22 22 25 22 28 28 30 29 28 27 21 24 23 20
0 5 1 3 0 2 1 2 2 2 5 5 5 5 5 5 9 9 9 9 6 4 4 3 6 9 13 15 16 18 19 20 22 25 28 29 27 27 25 23 23 23 23 21
2 3 5 2 2 3 1 1 1 1 2 2 5 6 4 4 5 13 12 10 10 7 4 3 4 7 10 12 15 17 19 20 22 22 22 22 22 22 21 22 21 21 19 20
1 3 4 8 1 1 2 3 4 3 4 3 2 8 0 2 5 7 10 11 11 11 8 5 3 4 8 11 12 14 16 16 17 16 17 19 19 20 21 21 21 20 20 20
3 1 4 7 1 1 3 4 3 2 1 7 4 7 2 2 1 4 10 13 13 13 12 10 6 3 5 7 9 10 12 13 12 14 16 18 19 20 20 20 19 19 19 19
4 2 6 7 5 2 10 7 5 6 4 6 18 22 18 10 7 8 10 12 12 13 13 10 9 6 3 5 6 8 9 11 11 11 12 14 16 16 16 16 17 18 19 20
4 5 6 11 10 10 20 18 12 14 19 9 25 12 21 12 8 10 11 11 12 12 11 10 8 8 5 4 5 7 9 10 12 13 15 16 16 16 16 17 18 17 17 18
1 3 4 8 11 8 11 14 14 17 18 16 21 25 14 4 3 4 11 14 14 12 11 12 12 9 7 5 4 5 8 10 11 11 12 12 12 12 13 15 17 17 19 19
4 2 2 5 0 6 9 10 6 3 5 5 7 8 0 3 4 2 5 10 12 13 13 12 12 11 7 4 4 5 6 7 8 9 11 14 15 16 15 15 15 14 15 16
2 2 2 5 5 2 4 1 3 7 7 10 11 5 2 2 1 2 2 8 9 10 9 10 12 10 7 4 2 3 5 6 8 10 13 15 16 17 18 18 19 20 19 18
4 4 3 3 3 8 6 3 4 4 6 4 11 4 2 2 1 2 1 3 5 7 12 12 11 9 6 3 1 3 4 5 7 11 14 15 16 18 18 19 20 20 22 20
3 1 3 1 4 6 5 2 2 2 5 3 2 3 5 5 2 1 5 8 11 13 14 13 10 7 4 2 3 6 7 8 10 13 16 16 16 17 19 19 19 21 19 18
3 2 9 7 5 8 5 5 4 3 6 2 2 1 6 5 1 3 9 12 12 12 12 9 7 5 2 2 5 7 8 9 13 15 16 17 17 18 17 18 20 19 19 18
7 6 5 2 4 10 8 4 7 3 3 2 2 1 4 7 9 9 9 11 12 11 8 5 2 1 2 5 8 8 10 13 16 16 18 19 19 18 15 17 17 16 19 20
3 8 4 10 8 0 10 3 3 2 3 3 2 2 8 11 10 10 8 9 8 6 3 1 1 2 4 8 8 11 13 16 17 19 20 20 20 19 17 15 16 17 18 18
4 6 4 2 8 15 6 2 2 2 3 5 6 8 8 11 9 8 6 6 5 3 2 2 3 5 8 8 10 12 15 16 18 20 21 21 20 18 17 18 15 14 16 15
3 6 5 11 16 5 1 2 4 6 7 8 8 7 7 9 7 7 5 5 3 1 2 4 7 8 12 14 14 14 16 17 18 19 21 22 17 19 19 16 16 16 18 18
5 9 6 10 4 2 3 4 6 7 7 7 10 9 11 10 7 8 6 4 3 3 7 8 8 11 15 16 18 18 17 16 18 20 15 16 18 18 17 18 21 22 20 20
Wind_Direction
5 66 22 302 181 156 215 230 252 262 247 255 232 237 188 144 60 24 358 344 349 351 346 4 6 5 10 15 13 13 13 6 6 327 213 231 230 248 255 253 235 228 224 216
26 78 257 184 149 174 212 258 269 274 202 230 221 258 171 155 125 91 12 350 347 349 5 1 2 4 10 14 14 19 22 20 17 352 255 170 147 130 115 121 208 223 220 213
131 197 208 309 341 4 303 216 268 258 297 201 315 274 170 178 146 120 64 3 355 2 5 1 359 1 6 14 11 18 27 22 33 55 103 107 101 87 82 80 89 84 143 116
32 313 15 325 259 129 298 216 266 280 333 269 48 298 236 188 198 204 28 15 6 3 359 12 4 3 6 10 23 28 32 31 44 55 71 72 69 71 64 72 72 79 89 95
307 357 346 305 265 167 238 295 253 249 222 6 316 205 239 154 224 208 166 57 10 2 11 7 4 4 6 14 23 32 42 43 53 53 57 60 68 62 74 73 75 71 69 72
275 280 235 275 334 190 300 304 49 54 84 330 242 165 248 193 209 157 167 152 46 19 21 18 23 24 19 29 30 32 42 46 52 56 53 57 56 51 56 53 63 56 57 54
337 313 304 353 345 16 27 27 346 359 2 244 200 193 263 184 180 159 169 162 116 44 36 21 25 27 28 26 33 32 37 40 46 51 53 55 54 55 53 49 50 51 49 46
21 335 358 350 58 301 8 70 108 308 303 295 354 244 278 58 99 113 135 147 127 77 49 39 28 33 35 35 40 42 40 39 51 56 53 53 57 56 58 53 49 51 51 44
7 285 317 12 2 84 10 22 202 268 260 356 260 290 169 98 161 172 166 171 159 124 88 61 46 43 40 44 44 45 46 46 53 50 53 54 56 51 56 56 54 55 51 43
230 300 271 290 81 47 124 164 346 26 325 302 291 284 260 238 223 206 205 195 184 159 142 104 73 59 55 51 52 53 51 46 44 45 46 46 46 46 46 44 42 41 39 36
126 133 287 334 196 181 33 318 71 149 168 263 309 266 213 216 202 206 200 191 174 180 171 140 97 82 76 63 53 49 47 46 44 43 46 47 46 45 44 44 40 39 35 32
10 163 280 243 237 349 201 226 170 141 265 237 181 268 192 257 266 210 181 173 170 169 165 159 136 100 78 69 57 51 49 47 43 43 44 44 43 40 37 34 30 27 26 25
168 273 318 327 38 63 227 214 196 100 81 212 218 262 186 225 179 184 176 178 170 166 163 158 157 138 101 84 65 57 52 51 48 41 38 37 34 30 29 25 21 20 19 21
159 189 198 241 256 281 269 238 212 196 232 250 241 271 264 261 228 198 191 185 178 170 168 161 158 147 136 95 74 64 55 48 45 42 39 36 29 25 23 19 18 17 13 10
183 232 208 259 261 261 269 271 249 228 246 239 269 259 274 284 258 219 194 161 169 174 170 160 149 152 149 114 65 48 42 35 30 27 23 19 12 8 5 4 5 5 5 3
194 262 212 269 253 261 268 264 250 242 250 249 260 270 289 291 307 164 178 171 175 172 170 154 148 158 159 142 97 53 33 25 20 20 17 11 9 7 4 -0 357 355 355 356
206 232 315 263 68 295 284 258 208 200 203 185 207 238 234 294 323 271 185 178 173 162 164 156 155 160 155 130 65 35 18 8 8 7 3 359 356 355 355 353 354 350 348 346
209 185 224 285 340 287 279 176 229 218 255 219 267 254 203 277 333 10 142 164 159 150 147 147 151 147 135 128 93 33 2 353 355 354 354 351 346 344 343 343 343 343 341 338
210 162 260 264 247 287 264 166 148 174 277 245 239 208 145 134 204 260 125 118 134 133 142 146 143 137 131 119 76 352 345 341 346 348 345 343 339 334 334 332 331 332 332 330
94 137 186 170 251 270 250 148 164 127 282 14 307 219 177 158 237 200 129 111 108 119 129 130 130 126 106 54 1 344 341 340 341 336 333 332 331 325 320 320 324 325 323 318
123 187 220 224 251 275 249 153 168 109 302 344 326 201 176 192 305 98 101 92 104 112 113 113 108 97 72 7 339 339 333 332 328 324 323 324 323 319 317 313 314 317 318 316
187 184 209 197 222 271 150 107 191 200 148 165 266 147 173 120 121 112 115 115 112 105 92 92 110 75 8 344 333 330 327 325 320 319 318 318 319 317 311 309 312 314 316 315
238 196 203 197 222 342 202 214 127 131 130 157 192 174 148 137 134 127 113 99 98 106 108 79 49 4 349 337 333 324 322 319 318 315 316 318 319 317 314 310 311 310 313 312
257 202 227 23 252 252 217 179 148 125 131 131 128 124 127 128 123 120 117 119 115 105 72 41 358 340 329 330 322 318 318 317 314 313 315 318 317 318 311 310 308 302 302 304
201 148 210 251 278 284 93 46 116 108 109 104 84 89 107 115 110 116 113 105 102 80 24 1 341 331 321 324 324 324 320 318 315 313 315 317 314 316 313 308 307 302 298 296
188 241 231 268 36 337 18 69 101 107 100 98 103 84 75 93 95 99 93 79 37 22 347 340 332 322 322 324 324 326 327 322 315 311 309 310 308 308 307 305 305 313 303 303